Time,TemperatureF,DewpointF,PressureIn,WindDirection,WindDirectionDegrees,WindSpeedMPH,WindSpeedGustMPH,Humidity,HourlyPrecipIn,Conditions,Clouds,dailyrainin,SolarRadiationWatts/m^2,SoftwareType,DateUTC
2013-12-22 00:00:00,57.5,56.1,29.79,WNW,287,1.0,1.0,95,0.00,,,0.00,0,Wunderground v.1.15,2013-12-22 06:00:00,
2013-12-22 00:06:00,57.3,55.9,29.79,WNW,292,1.0,8.0,95,0.00,,,0.00,0,Wunderground v.1.15,2013-12-22 06:06:00,
2013-12-22 00:11:00,57.2,55.8,29.79,NW,307,1.0,8.0,95,0.00,,,0.00,0,Wunderground v.1.15,2013-12-22 06:11:00,
2013-12-22 00:16:00,57.1,55.7,29.79,WNW,285,0.0,8.0,95,0.00,,,0.00,0,Wunderground v.1.15,2013-12-22 06:16:00,
2013-12-22 00:22:00,57.1,56.0,29.79,WNW,285,0.0,8.0,96,0.00,,,0.00,0,Wunderground v.1.15,2013-12-22 06:22:00,
2013-12-22 00:27:00,57.1,55.7,29.77,WNW,303,1.0,8.0,95,0.00,,,0.00,0,Wunderground v.1.15,2013-12-22 06:27:00,
2013-12-22 00:32:00,57.0,55.6,29.78,WNW,298,1.0,8.0,95,0.00,,,0.00,0,Wunderground v.1.15,2013-12-22 06:32:00,
2013-12-22 00:37:00,56.9,55.5,29.77,WNW,298,0.0,8.0,95,0.00,,,0.00,0,Wunderground v.1.15,2013-12-22 06:37:00,
2013-12-22 00:43:00,56.8,55.4,29.78,WNW,298,0.0,8.0,95,0.14,,,0.01,0,Wunderground v.1.15,2013-12-22 06:43:00,
2013-12-22 00:48:00,56.6,55.2,29.79,WNW,298,0.0,8.0,95,0.27,,,0.05,0,Wunderground v.1.15,2013-12-22 06:48:00,
2013-12-22 00:53:00,56.5,55.4,29.79,WNW,298,0.0,8.0,96,0.41,,,0.07,0,Wunderground v.1.15,2013-12-22 06:53:00,
2013-12-22 00:58:00,56.5,55.4,29.79,WNW,298,0.0,8.0,96,0.09,,,0.07,0,Wunderground v.1.15,2013-12-22 06:58:00,
2013-12-22 01:03:00,56.4,55.3,29.77,WNW,298,0.0,0.0,96,0.08,,,0.08,0,Wunderground v.1.15,2013-12-22 07:03:00,
2013-12-22 01:08:00,56.3,55.2,29.78,WNW,298,0.0,0.0,96,0.07,,,0.08,0,Wunderground v.1.15,2013-12-22 07:08:00,
2013-12-22 01:13:00,56.3,55.5,29.80,WNW,298,0.0,0.0,97,0.04,,,0.08,0,Wunderground v.1.15,2013-12-22 07:13:00,
2013-12-22 01:19:00,56.2,55.4,29.80,WNW,298,0.0,0.0,97,0.20,,,0.12,0,Wunderground v.1.15,2013-12-22 07:19:00,
2013-12-22 01:24:00,56.1,55.0,29.82,WNW,298,0.0,0.0,96,0.07,,,0.12,0,Wunderground v.1.15,2013-12-22 07:24:00,
2013-12-22 01:29:00,56.0,54.9,29.81,WNW,298,0.0,0.0,96,0.07,,,0.13,0,Wunderground v.1.15,2013-12-22 07:29:00,
2013-12-22 01:34:00,55.9,55.1,29.82,WNW,298,0.0,0.0,97,0.06,,,0.13,0,Wunderground v.1.15,2013-12-22 07:34:00,
2013-12-22 01:39:00,55.9,55.1,29.81,WNW,298,0.0,0.0,97,0.04,,,0.13,0,Wunderground v.1.15,2013-12-22 07:39:00,
2013-12-22 01:45:00,55.9,55.1,29.85,WNW,298,0.0,0.0,97,0.00,,,0.13,0,Wunderground v.1.15,2013-12-22 07:45:00,
2013-12-22 01:50:00,55.9,55.1,29.84,WNW,297,0.0,0.0,97,0.54,,,0.15,0,Wunderground v.1.15,2013-12-22 07:50:00,
2013-12-22 01:55:00,55.8,55.0,29.82,WNW,297,0.0,0.0,97,1.35,,,0.21,0,Wunderground v.1.15,2013-12-22 07:55:00,
2013-12-22 02:00:00,55.8,55.0,29.84,WNW,296,0.0,0.0,97,0.46,,,0.28,0,Wunderground v.1.15,2013-12-22 08:00:00,
2013-12-22 02:05:00,55.8,55.0,29.82,WNW,296,0.0,0.0,97,0.38,,,0.31,0,Wunderground v.1.15,2013-12-22 08:05:00,
2013-12-22 02:10:00,55.7,54.9,29.82,WNW,296,0.0,0.0,97,0.47,,,0.35,0,Wunderground v.1.15,2013-12-22 08:10:00,
2013-12-22 02:15:00,55.7,54.9,29.81,WNW,296,0.0,0.0,97,1.05,,,0.41,0,Wunderground v.1.15,2013-12-22 08:15:00,
2013-12-22 02:20:00,55.7,54.9,29.81,WNW,296,0.0,0.0,97,0.14,,,0.42,0,Wunderground v.1.15,2013-12-22 08:20:00,
2013-12-22 02:25:00,55.7,54.9,29.81,WNW,296,0.0,0.0,97,0.11,,,0.43,0,Wunderground v.1.15,2013-12-22 08:25:00,
2013-12-22 02:30:00,55.7,54.9,29.81,WNW,296,0.0,0.0,97,0.07,,,0.43,0,Wunderground v.1.15,2013-12-22 08:30:00,
2013-12-22 02:35:00,55.7,54.9,29.82,WNW,296,0.0,0.0,97,0.04,,,0.43,0,Wunderground v.1.15,2013-12-22 08:35:00,
2013-12-22 02:41:00,55.7,54.9,29.83,WNW,296,0.0,0.0,97,0.00,,,0.43,0,Wunderground v.1.15,2013-12-22 08:41:00,
2013-12-22 02:46:00,55.8,55.2,29.82,WNW,296,0.0,0.0,98,0.00,,,0.43,0,Wunderground v.1.15,2013-12-22 08:46:00,
2013-12-22 02:52:00,55.8,55.2,29.82,WNW,296,0.0,0.0,98,0.29,,,0.45,0,Wunderground v.1.15,2013-12-22 08:52:00,
2013-12-22 02:57:00,55.8,55.2,29.83,WNW,296,0.0,0.0,98,0.20,,,0.46,0,Wunderground v.1.15,2013-12-22 08:57:00,
2013-12-22 03:02:00,55.9,55.3,29.83,WNW,296,0.0,0.0,98,0.13,,,0.47,0,Wunderground v.1.15,2013-12-22 09:02:00,
2013-12-22 03:07:00,55.9,55.3,29.82,WNW,296,0.0,0.0,98,0.07,,,0.47,0,Wunderground v.1.15,2013-12-22 09:07:00,
2013-12-22 03:12:00,55.9,55.3,29.83,WNW,296,0.0,0.0,98,0.04,,,0.47,0,Wunderground v.1.15,2013-12-22 09:12:00,
2013-12-22 03:17:00,56.0,55.4,29.83,WNW,296,0.0,0.0,98,0.00,,,0.47,0,Wunderground v.1.15,2013-12-22 09:17:00,
2013-12-22 03:23:00,55.9,55.3,29.83,WNW,296,0.0,0.0,98,0.00,,,0.47,0,Wunderground v.1.15,2013-12-22 09:23:00,
2013-12-22 03:29:00,56.0,55.4,29.83,WNW,296,0.0,0.0,98,0.00,,,0.48,0,Wunderground v.1.15,2013-12-22 09:29:00,
2013-12-22 03:34:00,56.0,55.4,29.83,WNW,296,0.0,0.0,98,0.00,,,0.48,0,Wunderground v.1.15,2013-12-22 09:34:00,
2013-12-22 03:39:00,56.0,55.4,29.84,WNW,296,0.0,0.0,98,0.00,,,0.48,0,Wunderground v.1.15,2013-12-22 09:39:00,
2013-12-22 03:44:00,55.9,55.3,29.85,WNW,296,0.0,0.0,98,0.00,,,0.48,0,Wunderground v.1.15,2013-12-22 09:44:00,
2013-12-22 03:49:00,55.9,55.3,29.85,WNW,296,0.0,0.0,98,0.00,,,0.48,0,Wunderground v.1.15,2013-12-22 09:49:00,
2013-12-22 03:54:00,55.9,55.3,29.84,WNW,296,0.0,0.0,98,0.00,,,0.48,0,Wunderground v.1.15,2013-12-22 09:54:00,
2013-12-22 03:59:00,56.0,55.4,29.84,WNW,296,0.0,0.0,98,0.00,,,0.48,0,Wunderground v.1.15,2013-12-22 09:59:00,
2013-12-22 04:05:00,56.0,55.4,29.83,WNW,296,0.0,0.0,98,0.00,,,0.48,0,Wunderground v.1.15,2013-12-22 10:05:00,
2013-12-22 04:10:00,56.0,55.4,29.83,WNW,296,0.0,0.0,98,0.00,,,0.48,0,Wunderground v.1.15,2013-12-22 10:10:00,
2013-12-22 04:15:00,56.0,55.4,29.83,WNW,296,0.0,0.0,98,0.00,,,0.48,0,Wunderground v.1.15,2013-12-22 10:15:00,
2013-12-22 04:21:00,55.9,55.3,29.84,WNW,296,0.0,0.0,98,0.00,,,0.48,0,Wunderground v.1.15,2013-12-22 10:21:00,
2013-12-22 04:27:00,56.0,55.4,29.85,WNW,296,0.0,0.0,98,0.00,,,0.48,0,Wunderground v.1.15,2013-12-22 10:27:00,
2013-12-22 04:32:00,56.0,55.4,29.84,WNW,296,0.0,0.0,98,0.00,,,0.48,0,Wunderground v.1.15,2013-12-22 10:32:00,
2013-12-22 04:37:00,56.0,55.4,29.85,WNW,296,0.0,0.0,98,0.00,,,0.48,0,Wunderground v.1.15,2013-12-22 10:37:00,
2013-12-22 04:43:00,55.9,55.3,29.84,WNW,296,0.0,0.0,98,0.00,,,0.48,0,Wunderground v.1.15,2013-12-22 10:43:00,
2013-12-22 04:49:00,55.9,55.3,29.83,WNW,296,0.0,0.0,98,0.00,,,0.48,0,Wunderground v.1.15,2013-12-22 10:49:00,
2013-12-22 04:54:00,55.9,55.3,29.83,WNW,296,0.0,0.0,98,0.00,,,0.48,0,Wunderground v.1.15,2013-12-22 10:54:00,
2013-12-22 04:59:00,55.9,55.3,29.83,WNW,296,0.0,0.0,98,0.00,,,0.48,0,Wunderground v.1.15,2013-12-22 10:59:00,
2013-12-22 05:04:00,55.8,55.2,29.83,WNW,296,0.0,0.0,98,0.00,,,0.48,0,Wunderground v.1.15,2013-12-22 11:04:00,
2013-12-22 05:09:00,55.8,55.2,29.83,WNW,296,0.0,0.0,98,0.00,,,0.48,0,Wunderground v.1.15,2013-12-22 11:09:00,
2013-12-22 05:14:00,55.7,55.1,29.83,WNW,296,0.0,0.0,98,0.00,,,0.48,0,Wunderground v.1.15,2013-12-22 11:14:00,
2013-12-22 05:20:00,55.7,55.1,29.84,WNW,296,0.0,0.0,98,0.00,,,0.48,0,Wunderground v.1.15,2013-12-22 11:20:00,
2013-12-22 05:25:00,55.7,55.1,29.84,WNW,296,0.0,0.0,98,0.00,,,0.48,0,Wunderground v.1.15,2013-12-22 11:25:00,
2013-12-22 05:30:00,55.8,55.2,29.85,WNW,296,0.0,0.0,98,0.00,,,0.48,0,Wunderground v.1.15,2013-12-22 11:30:00,
2013-12-22 05:35:00,55.8,55.2,29.84,WNW,296,0.0,0.0,98,0.00,,,0.48,0,Wunderground v.1.15,2013-12-22 11:35:00,
2013-12-22 05:40:00,55.9,55.3,29.85,WNW,296,0.0,0.0,98,0.00,,,0.48,0,Wunderground v.1.15,2013-12-22 11:40:00,
2013-12-22 05:46:00,56.0,55.4,29.85,WNW,296,0.0,0.0,98,0.00,,,0.48,0,Wunderground v.1.15,2013-12-22 11:46:00,
2013-12-22 05:51:00,56.0,55.4,29.85,WNW,296,0.0,0.0,98,0.00,,,0.48,0,Wunderground v.1.15,2013-12-22 11:51:00,
2013-12-22 05:56:00,55.9,55.3,29.85,WNW,296,0.0,0.0,98,0.00,,,0.48,0,Wunderground v.1.15,2013-12-22 11:56:00,
2013-12-22 06:01:00,55.9,55.3,29.84,WNW,296,0.0,0.0,98,0.00,,,0.48,0,Wunderground v.1.15,2013-12-22 12:01:00,
2013-12-22 06:06:00,55.9,55.3,29.85,WNW,296,0.0,0.0,98,0.00,,,0.48,0,Wunderground v.1.15,2013-12-22 12:06:00,
2013-12-22 06:12:00,55.9,55.3,29.86,WNW,296,0.0,0.0,98,0.00,,,0.48,0,Wunderground v.1.15,2013-12-22 12:12:00,
2013-12-22 06:17:00,55.9,55.3,29.86,WNW,296,0.0,0.0,98,0.00,,,0.48,0,Wunderground v.1.15,2013-12-22 12:17:00,
2013-12-22 06:22:00,56.0,55.4,29.87,WNW,296,0.0,0.0,98,0.00,,,0.48,0,Wunderground v.1.15,2013-12-22 12:22:00,
2013-12-22 06:28:00,56.0,55.4,29.87,WNW,296,0.0,0.0,98,0.00,,,0.48,0,Wunderground v.1.15,2013-12-22 12:28:00,
2013-12-22 06:34:00,55.9,55.3,29.86,WNW,296,0.0,0.0,98,0.00,,,0.48,0,Wunderground v.1.15,2013-12-22 12:34:00,
2013-12-22 06:39:00,55.9,55.3,29.86,WNW,296,0.0,0.0,98,0.00,,,0.48,0,Wunderground v.1.15,2013-12-22 12:39:00,
2013-12-22 06:44:00,55.9,55.3,29.86,WNW,296,0.0,0.0,98,0.00,,,0.48,0,Wunderground v.1.15,2013-12-22 12:44:00,
2013-12-22 06:50:00,55.8,55.2,29.87,WNW,296,0.0,0.0,98,0.00,,,0.48,0,Wunderground v.1.15,2013-12-22 12:50:00,
2013-12-22 06:56:00,55.8,55.2,29.86,WNW,296,0.0,0.0,98,0.00,,,0.48,0,Wunderground v.1.15,2013-12-22 12:56:00,
2013-12-22 07:01:00,55.8,55.2,29.87,WNW,296,0.0,0.0,98,0.00,,,0.48,0,Wunderground v.1.15,2013-12-22 13:01:00,
2013-12-22 07:06:00,55.8,55.2,29.87,WNW,296,0.0,0.0,98,0.00,,,0.48,0,Wunderground v.1.15,2013-12-22 13:06:00,
2013-12-22 07:11:00,55.8,55.2,29.88,WNW,296,0.0,0.0,98,0.00,,,0.48,0,Wunderground v.1.15,2013-12-22 13:11:00,
2013-12-22 07:16:00,55.9,55.3,29.89,WNW,296,0.0,0.0,98,0.00,,,0.48,5,Wunderground v.1.15,2013-12-22 13:16:00,
2013-12-22 07:21:00,55.9,55.3,29.88,WNW,296,0.0,0.0,98,0.00,,,0.48,9,Wunderground v.1.15,2013-12-22 13:21:00,
2013-12-22 07:26:00,56.0,55.4,29.89,WNW,296,0.0,0.0,98,0.00,,,0.48,7,Wunderground v.1.15,2013-12-22 13:26:00,
2013-12-22 07:31:00,56.0,55.4,29.89,WNW,296,0.0,0.0,98,0.00,,,0.48,12,Wunderground v.1.15,2013-12-22 13:31:00,
2013-12-22 07:36:00,56.1,55.5,29.89,WNW,296,0.0,0.0,98,0.00,,,0.48,19,Wunderground v.1.15,2013-12-22 13:36:00,
2013-12-22 07:41:00,56.1,55.5,29.89,WNW,296,0.0,0.0,98,0.00,,,0.48,16,Wunderground v.1.15,2013-12-22 13:41:00,
2013-12-22 07:47:00,56.2,55.6,29.90,WNW,296,0.0,0.0,98,0.00,,,0.48,21,Wunderground v.1.15,2013-12-22 13:47:00,
2013-12-22 07:52:00,56.2,55.6,29.90,WNW,296,0.0,0.0,98,0.00,,,0.48,33,Wunderground v.1.15,2013-12-22 13:52:00,
2013-12-22 07:57:00,56.3,55.7,29.91,WNW,296,0.0,0.0,98,0.00,,,0.48,19,Wunderground v.1.15,2013-12-22 13:57:00,
2013-12-22 08:02:00,56.4,55.8,29.90,WNW,296,0.0,0.0,98,0.00,,,0.48,19,Wunderground v.1.15,2013-12-22 14:02:00,
2013-12-22 08:07:00,56.4,55.8,29.91,WNW,296,0.0,0.0,98,0.00,,,0.48,12,Wunderground v.1.15,2013-12-22 14:07:00,
2013-12-22 08:13:00,56.5,55.9,29.91,WNW,296,0.0,0.0,98,0.00,,,0.48,18,Wunderground v.1.15,2013-12-22 14:13:00,
2013-12-22 08:18:00,56.5,55.9,29.92,WNW,296,0.0,0.0,98,0.00,,,0.48,21,Wunderground v.1.15,2013-12-22 14:18:00,
2013-12-22 08:23:00,56.5,55.9,29.92,WNW,296,0.0,0.0,98,0.00,,,0.48,40,Wunderground v.1.15,2013-12-22 14:23:00,
2013-12-22 08:28:00,56.5,55.9,29.92,WNW,296,0.0,0.0,98,0.00,,,0.48,40,Wunderground v.1.15,2013-12-22 14:28:00,
2013-12-22 08:33:00,56.5,55.9,29.92,WNW,296,0.0,0.0,98,0.00,,,0.48,39,Wunderground v.1.15,2013-12-22 14:33:00,
2013-12-22 08:38:00,56.5,55.9,29.92,WNW,296,0.0,0.0,98,0.00,,,0.48,74,Wunderground v.1.15,2013-12-22 14:38:00,
2013-12-22 08:44:00,56.6,56.0,29.92,WNW,296,0.0,0.0,98,0.00,,,0.48,88,Wunderground v.1.15,2013-12-22 14:44:00,
2013-12-22 08:49:00,56.7,56.4,29.93,WNW,296,0.0,0.0,99,0.00,,,0.48,97,Wunderground v.1.15,2013-12-22 14:49:00,
2013-12-22 08:54:00,56.9,56.6,29.93,WNW,296,0.0,0.0,99,0.00,,,0.48,123,Wunderground v.1.15,2013-12-22 14:54:00,
2013-12-22 08:59:00,57.1,56.5,29.92,WNW,296,0.0,0.0,98,0.00,,,0.48,155,Wunderground v.1.15,2013-12-22 14:59:00,
2013-12-22 09:04:00,57.3,57.0,29.93,WNW,296,0.0,0.0,99,0.00,,,0.48,86,Wunderground v.1.15,2013-12-22 15:04:00,
2013-12-22 09:10:00,57.3,57.0,29.93,WNW,296,0.0,0.0,99,0.00,,,0.48,174,Wunderground v.1.15,2013-12-22 15:10:00,
2013-12-22 09:15:00,57.4,57.1,29.93,WNW,296,0.0,0.0,99,0.00,,,0.48,151,Wunderground v.1.15,2013-12-22 15:15:00,
2013-12-22 09:20:00,57.5,57.2,29.93,WNW,296,0.0,0.0,99,0.00,,,0.48,118,Wunderground v.1.15,2013-12-22 15:20:00,
2013-12-22 09:25:00,57.6,57.3,29.94,WNW,296,0.0,0.0,99,0.00,,,0.48,141,Wunderground v.1.15,2013-12-22 15:25:00,
2013-12-22 09:30:00,57.7,57.1,29.94,WNW,296,0.0,0.0,98,0.00,,,0.48,188,Wunderground v.1.15,2013-12-22 15:30:00,
2013-12-22 09:35:00,58.0,57.7,29.94,WNW,296,0.0,0.0,99,0.00,,,0.48,216,Wunderground v.1.15,2013-12-22 15:35:00,
2013-12-22 09:40:00,58.1,57.8,29.94,WNW,296,0.0,0.0,99,0.00,,,0.48,118,Wunderground v.1.15,2013-12-22 15:40:00,
2013-12-22 09:46:00,58.2,57.6,29.94,WNW,296,0.0,0.0,98,0.00,,,0.48,137,Wunderground v.1.15,2013-12-22 15:46:00,
2013-12-22 09:51:00,58.4,57.8,29.94,WNW,296,0.0,0.0,98,0.00,,,0.48,128,Wunderground v.1.15,2013-12-22 15:51:00,
2013-12-22 09:56:00,58.5,57.9,29.94,WNW,296,0.0,0.0,98,0.00,,,0.48,111,Wunderground v.1.15,2013-12-22 15:56:00,
2013-12-22 10:01:00,58.9,58.3,29.93,WNW,296,0.0,0.0,98,0.00,,,0.48,197,Wunderground v.1.15,2013-12-22 16:01:00,
2013-12-22 10:06:00,59.0,58.4,29.94,WNW,296,0.0,0.0,98,0.00,,,0.48,183,Wunderground v.1.15,2013-12-22 16:06:00,
2013-12-22 10:11:00,59.0,58.4,29.94,WNW,296,0.0,0.0,98,0.00,,,0.48,120,Wunderground v.1.15,2013-12-22 16:11:00,
2013-12-22 10:16:00,59.0,58.2,29.94,WNW,296,0.0,0.0,97,0.00,,,0.48,146,Wunderground v.1.15,2013-12-22 16:16:00,
2013-12-22 10:21:00,59.1,58.2,29.94,WNW,296,0.0,0.0,97,0.00,,,0.48,142,Wunderground v.1.15,2013-12-22 16:21:00,
2013-12-22 10:26:00,59.4,58.5,29.94,WNW,296,0.0,0.0,97,0.00,,,0.48,241,Wunderground v.1.15,2013-12-22 16:26:00,
2013-12-22 10:31:00,59.6,58.5,29.95,WNW,296,0.0,0.0,96,0.00,,,0.48,197,Wunderground v.1.15,2013-12-22 16:31:00,
2013-12-22 10:37:00,60.0,58.6,29.96,WNW,296,0.0,0.0,95,0.00,,,0.48,141,Wunderground v.1.15,2013-12-22 16:37:00,
2013-12-22 10:42:00,60.2,58.8,29.96,WNW,296,0.0,0.0,95,0.00,,,0.48,98,Wunderground v.1.15,2013-12-22 16:42:00,
2013-12-22 10:47:00,60.3,58.9,29.96,WNW,296,0.0,0.0,95,0.00,,,0.48,109,Wunderground v.1.15,2013-12-22 16:47:00,
2013-12-22 10:52:00,60.5,59.1,29.96,WNW,296,0.0,0.0,95,0.00,,,0.48,156,Wunderground v.1.15,2013-12-22 16:52:00,
2013-12-22 10:57:00,60.7,59.3,29.95,WNW,296,0.0,0.0,95,0.00,,,0.48,218,Wunderground v.1.15,2013-12-22 16:57:00,
2013-12-22 11:03:00,61.0,59.3,29.95,WNW,296,0.0,0.0,94,0.00,,,0.48,172,Wunderground v.1.15,2013-12-22 17:03:00,
2013-12-22 11:08:00,61.1,59.1,29.95,WNW,296,0.0,0.0,93,0.00,,,0.48,156,Wunderground v.1.15,2013-12-22 17:08:00,
2013-12-22 11:13:00,61.3,59.6,29.95,WNW,296,0.0,0.0,94,0.00,,,0.48,165,Wunderground v.1.15,2013-12-22 17:13:00,
2013-12-22 11:18:00,61.4,59.4,29.95,WNW,296,0.0,0.0,93,0.00,,,0.48,107,Wunderground v.1.15,2013-12-22 17:18:00,
2013-12-22 11:23:00,61.7,59.4,29.96,WNW,296,0.0,0.0,92,0.00,,,0.48,86,Wunderground v.1.15,2013-12-22 17:23:00,
2013-12-22 11:29:00,61.7,59.4,29.96,WNW,296,0.0,0.0,92,0.00,,,0.48,132,Wunderground v.1.15,2013-12-22 17:29:00,
2013-12-22 11:35:00,61.7,59.4,29.95,WNW,296,0.0,0.0,92,0.00,,,0.48,272,Wunderground v.1.15,2013-12-22 17:35:00,
2013-12-22 11:40:00,61.9,59.9,29.95,WNW,292,0.0,0.0,93,0.00,,,0.48,167,Wunderground v.1.15,2013-12-22 17:40:00,
2013-12-22 11:45:00,62.1,59.7,29.95,WNW,296,0.0,0.0,92,0.00,,,0.48,195,Wunderground v.1.15,2013-12-22 17:45:00,
2013-12-22 11:51:00,62.1,59.1,29.95,WNW,296,0.0,0.0,90,0.00,,,0.48,120,Wunderground v.1.15,2013-12-22 17:51:00,
2013-12-22 11:56:00,62.1,58.8,29.96,WNW,296,0.0,0.0,89,0.00,,,0.48,98,Wunderground v.1.15,2013-12-22 17:56:00,
2013-12-22 12:01:00,62.1,59.1,29.95,WNW,296,0.0,0.0,90,0.00,,,0.48,156,Wunderground v.1.15,2013-12-22 18:01:00,
2013-12-22 12:06:00,62.2,59.2,29.94,WNW,296,0.0,0.0,90,0.00,,,0.48,111,Wunderground v.1.15,2013-12-22 18:06:00,
2013-12-22 12:11:00,62.3,59.6,29.95,WNW,296,0.0,0.0,91,0.00,,,0.48,167,Wunderground v.1.15,2013-12-22 18:11:00,
2013-12-22 12:17:00,62.5,59.8,29.94,WNW,296,0.0,0.0,91,0.00,,,0.48,156,Wunderground v.1.15,2013-12-22 18:17:00,
2013-12-22 12:22:00,62.6,60.2,29.94,WNW,296,0.0,0.0,92,0.00,,,0.48,181,Wunderground v.1.15,2013-12-22 18:22:00,
2013-12-22 12:27:00,62.6,59.6,29.94,WNW,296,0.0,0.0,90,0.00,,,0.48,111,Wunderground v.1.15,2013-12-22 18:27:00,
2013-12-22 12:32:00,62.6,59.6,29.94,WNW,292,0.0,0.0,90,0.00,,,0.48,142,Wunderground v.1.15,2013-12-22 18:32:00,
2013-12-22 12:37:00,62.6,59.6,29.94,WNW,296,0.0,0.0,90,0.00,,,0.48,123,Wunderground v.1.15,2013-12-22 18:37:00,
2013-12-22 12:43:00,62.6,59.6,29.94,WNW,296,0.0,0.0,90,0.00,,,0.48,123,Wunderground v.1.15,2013-12-22 18:43:00,
2013-12-22 12:48:00,62.6,59.3,29.93,WNW,296,0.0,0.0,89,0.00,,,0.48,163,Wunderground v.1.15,2013-12-22 18:48:00,
2013-12-22 12:53:00,62.6,59.3,29.94,WNW,296,0.0,0.0,89,0.00,,,0.48,172,Wunderground v.1.15,2013-12-22 18:53:00,
2013-12-22 12:58:00,62.7,59.7,29.93,WNW,296,0.0,0.0,90,0.00,,,0.48,207,Wunderground v.1.15,2013-12-22 18:58:00,
2013-12-22 13:03:00,62.8,59.2,29.93,WNW,296,0.0,0.0,88,0.00,,,0.48,193,Wunderground v.1.15,2013-12-22 19:03:00,
2013-12-22 13:08:00,62.8,58.9,29.93,WNW,292,0.0,1.0,87,0.00,,,0.48,125,Wunderground v.1.15,2013-12-22 19:08:00,
2013-12-22 13:13:00,62.9,58.6,29.93,WNW,296,0.0,0.0,86,0.00,,,0.48,98,Wunderground v.1.15,2013-12-22 19:13:00,
2013-12-22 13:18:00,62.8,57.9,29.93,WNW,296,0.0,0.0,84,0.00,,,0.48,123,Wunderground v.1.15,2013-12-22 19:18:00,
2013-12-22 13:23:00,62.8,57.6,29.92,WNW,296,0.0,0.0,83,0.00,,,0.48,105,Wunderground v.1.15,2013-12-22 19:23:00,
2013-12-22 13:28:00,62.9,58.3,29.92,WNW,296,0.0,0.0,85,0.00,,,0.48,93,Wunderground v.1.15,2013-12-22 19:28:00,
2013-12-22 13:33:00,63.0,58.4,29.93,WNW,296,0.0,0.0,85,0.00,,,0.48,56,Wunderground v.1.15,2013-12-22 19:33:00,
2013-12-22 13:38:00,63.0,58.7,29.92,WNW,296,0.0,0.0,86,0.00,,,0.48,67,Wunderground v.1.15,2013-12-22 19:38:00,
2013-12-22 13:44:00,63.0,59.4,29.93,WNW,296,0.0,0.0,88,0.00,,,0.48,97,Wunderground v.1.15,2013-12-22 19:44:00,
2013-12-22 13:50:00,63.0,59.4,29.92,WNW,296,0.0,0.0,88,0.00,,,0.48,104,Wunderground v.1.15,2013-12-22 19:50:00,
2013-12-22 13:56:00,63.0,59.1,29.92,WNW,296,0.0,0.0,87,0.00,,,0.48,86,Wunderground v.1.15,2013-12-22 19:56:00,
2013-12-22 14:01:00,63.0,59.4,29.93,WNW,296,0.0,0.0,88,0.00,,,0.48,86,Wunderground v.1.15,2013-12-22 20:01:00,
2013-12-22 14:07:00,62.9,59.6,29.93,WNW,296,0.0,0.0,89,0.00,,,0.48,128,Wunderground v.1.15,2013-12-22 20:07:00,
2013-12-22 14:12:00,62.9,59.3,29.93,WNW,296,0.0,1.0,88,0.00,,,0.48,63,Wunderground v.1.15,2013-12-22 20:12:00,
2013-12-22 14:18:00,62.8,58.9,29.94,WNW,296,1.0,2.0,87,0.00,,,0.48,72,Wunderground v.1.15,2013-12-22 20:18:00,
2013-12-22 14:23:00,62.7,57.1,29.94,WNW,296,1.0,1.0,82,0.00,,,0.48,62,Wunderground v.1.15,2013-12-22 20:23:00,
2013-12-22 14:29:00,62.6,57.4,29.95,WNW,296,0.0,1.0,83,0.00,,,0.48,56,Wunderground v.1.15,2013-12-22 20:29:00,
2013-12-22 14:35:00,62.5,57.3,29.95,WNW,296,0.0,0.0,83,0.00,,,0.48,54,Wunderground v.1.15,2013-12-22 20:35:00,
2013-12-22 14:41:00,62.5,57.9,29.94,WNW,296,0.0,0.0,85,0.00,,,0.48,84,Wunderground v.1.15,2013-12-22 20:41:00,
2013-12-22 14:47:00,62.3,58.4,29.94,WNW,296,0.0,0.0,87,0.00,,,0.48,84,Wunderground v.1.15,2013-12-22 20:47:00,
2013-12-22 14:52:00,62.3,58.4,29.94,WNW,292,0.0,0.0,87,0.00,,,0.48,60,Wunderground v.1.15,2013-12-22 20:52:00,
2013-12-22 14:58:00,62.4,58.5,29.95,WNW,292,0.0,0.0,87,0.00,,,0.48,67,Wunderground v.1.15,2013-12-22 20:58:00,
2013-12-22 15:04:00,62.3,58.7,29.95,WNW,296,0.0,1.0,88,0.00,,,0.48,47,Wunderground v.1.15,2013-12-22 21:04:00,
2013-12-22 15:10:00,62.4,58.5,29.96,WNW,296,0.0,0.0,87,0.00,,,0.48,33,Wunderground v.1.15,2013-12-22 21:10:00,
2013-12-22 15:15:00,62.3,58.4,29.96,WNW,296,0.0,0.0,87,0.00,,,0.48,46,Wunderground v.1.15,2013-12-22 21:15:00,
2013-12-22 15:21:00,62.4,58.8,29.96,WNW,296,0.0,0.0,88,0.00,,,0.48,28,Wunderground v.1.15,2013-12-22 21:21:00,
2013-12-22 15:27:00,62.3,59.0,29.96,WNW,296,0.0,0.0,89,0.00,,,0.48,18,Wunderground v.1.15,2013-12-22 21:27:00,
2013-12-22 15:28:00,62.3,59.0,29.96,WNW,296,0.0,0.0,89,0.00,,,0.48,21,Wunderground v.1.15,2013-12-22 21:28:00,
2013-12-22 15:33:00,62.2,58.9,29.96,WNW,296,0.0,0.0,89,0.00,,,0.48,32,Wunderground v.1.15,2013-12-22 21:33:00,
2013-12-22 15:38:00,62.2,59.2,29.96,WNW,296,0.0,0.0,90,0.00,,,0.48,44,Wunderground v.1.15,2013-12-22 21:38:00,
2013-12-22 15:43:00,62.1,58.8,29.97,WNW,296,0.0,0.0,89,0.00,,,0.48,23,Wunderground v.1.15,2013-12-22 21:43:00,
2013-12-22 15:48:00,61.9,58.6,29.98,WNW,296,0.0,0.0,89,0.00,,,0.48,18,Wunderground v.1.15,2013-12-22 21:48:00,
2013-12-22 15:53:00,61.7,58.4,29.99,WNW,296,0.0,0.0,89,0.00,,,0.48,14,Wunderground v.1.15,2013-12-22 21:53:00,
2013-12-22 15:58:00,61.6,58.6,29.98,WNW,296,0.0,0.0,90,0.00,,,0.48,33,Wunderground v.1.15,2013-12-22 21:58:00,
2013-12-22 16:03:00,61.6,58.9,29.97,WNW,296,0.0,0.0,91,0.00,,,0.48,32,Wunderground v.1.15,2013-12-22 22:03:00,
2013-12-22 16:09:00,61.4,58.1,29.97,WNW,296,0.0,2.0,89,0.00,,,0.48,26,Wunderground v.1.15,2013-12-22 22:09:00,
2013-12-22 16:14:00,61.3,57.7,29.98,WNW,296,0.0,0.0,88,0.00,,,0.48,7,Wunderground v.1.15,2013-12-22 22:14:00,
2013-12-22 16:19:00,61.3,57.7,29.99,WNW,296,0.0,0.0,88,0.00,,,0.48,7,Wunderground v.1.15,2013-12-22 22:19:00,
2013-12-22 16:24:00,61.2,58.2,29.99,WNW,296,0.0,0.0,90,0.00,,,0.48,9,Wunderground v.1.15,2013-12-22 22:24:00,
2013-12-22 16:30:00,60.9,57.9,29.99,WNW,296,0.0,0.0,90,0.00,,,0.48,12,Wunderground v.1.15,2013-12-22 22:30:00,
2013-12-22 16:35:00,60.5,57.9,29.99,WNW,296,0.0,0.0,91,0.00,,,0.48,23,Wunderground v.1.15,2013-12-22 22:35:00,
2013-12-22 16:40:00,60.3,58.0,29.98,WNW,296,0.0,0.0,92,0.00,,,0.48,19,Wunderground v.1.15,2013-12-22 22:40:00,
2013-12-22 16:45:00,60.0,57.7,29.99,WNW,296,0.0,0.0,92,0.00,,,0.48,12,Wunderground v.1.15,2013-12-22 22:45:00,
2013-12-22 16:51:00,59.8,57.5,30.00,WNW,296,0.0,0.0,92,0.00,,,0.48,5,Wunderground v.1.15,2013-12-22 22:51:00,
2013-12-22 16:56:00,59.7,57.7,29.99,WNW,296,0.0,0.0,93,0.00,,,0.48,5,Wunderground v.1.15,2013-12-22 22:56:00,
2013-12-22 17:02:00,59.5,57.2,30.00,WNW,296,0.0,0.0,92,0.00,,,0.48,0,Wunderground v.1.15,2013-12-22 23:02:00,
2013-12-22 17:07:00,59.4,57.4,30.02,WNW,296,0.0,1.0,93,0.00,,,0.48,0,Wunderground v.1.15,2013-12-22 23:07:00,
2013-12-22 17:13:00,59.3,57.6,30.04,WNW,296,0.0,0.0,94,0.00,,,0.48,0,Wunderground v.1.15,2013-12-22 23:13:00,
2013-12-22 17:18:00,59.0,56.7,30.01,WNW,296,0.0,0.0,92,0.00,,,0.48,0,Wunderground v.1.15,2013-12-22 23:18:00,
2013-12-22 17:23:00,59.0,57.0,30.01,WNW,296,0.0,0.0,93,0.00,,,0.48,0,Wunderground v.1.15,2013-12-22 23:23:00,
2013-12-22 17:28:00,59.1,57.1,30.00,WNW,296,0.0,0.0,93,0.00,,,0.48,0,Wunderground v.1.15,2013-12-22 23:28:00,
2013-12-22 17:34:00,59.0,57.0,30.00,WNW,296,0.0,0.0,93,0.00,,,0.48,0,Wunderground v.1.15,2013-12-22 23:34:00,
2013-12-22 17:39:00,59.0,57.0,30.00,WNW,296,0.0,0.0,93,0.00,,,0.49,0,Wunderground v.1.15,2013-12-22 23:39:00,
2013-12-22 17:44:00,59.0,57.0,30.00,WNW,296,0.0,0.0,93,0.13,,,0.50,0,Wunderground v.1.15,2013-12-22 23:44:00,
2013-12-22 17:49:00,59.0,57.3,30.00,WNW,296,0.0,0.0,94,0.10,,,0.50,0,Wunderground v.1.15,2013-12-22 23:49:00,
2013-12-22 17:54:00,58.6,56.9,30.01,WNW,296,0.0,0.0,94,0.05,,,0.50,0,Wunderground v.1.15,2013-12-22 23:54:00,
2013-12-22 18:00:00,58.3,56.6,30.00,WNW,296,0.0,0.0,94,0.04,,,0.50,0,Wunderground v.1.15,2013-12-23 00:00:00,
2013-12-22 18:06:00,58.2,56.8,29.98,WNW,296,0.0,0.0,95,0.00,,,0.50,0,Wunderground v.1.15,2013-12-23 00:06:00,
2013-12-22 18:11:00,58.0,56.6,29.99,WNW,296,0.0,0.0,95,0.00,,,0.50,0,Wunderground v.1.15,2013-12-23 00:11:00,
2013-12-22 18:17:00,57.9,56.8,30.00,WNW,296,0.0,0.0,96,0.00,,,0.51,0,Wunderground v.1.15,2013-12-23 00:17:00,
2013-12-22 18:22:00,57.7,56.6,29.99,WNW,296,0.0,0.0,96,0.00,,,0.51,0,Wunderground v.1.15,2013-12-23 00:22:00,
2013-12-22 18:28:00,57.6,56.5,29.99,WNW,296,0.0,0.0,96,0.00,,,0.51,0,Wunderground v.1.15,2013-12-23 00:28:00,
2013-12-22 18:33:00,57.5,56.4,30.00,WNW,296,0.0,0.0,96,0.00,,,0.51,0,Wunderground v.1.15,2013-12-23 00:33:00,
2013-12-22 18:38:00,57.4,56.3,30.01,WNW,296,0.0,0.0,96,0.00,,,0.51,0,Wunderground v.1.15,2013-12-23 00:38:00,
2013-12-22 18:43:00,57.4,56.6,30.01,WNW,296,0.0,0.0,97,0.00,,,0.51,0,Wunderground v.1.15,2013-12-23 00:43:00,
2013-12-22 18:49:00,57.4,56.6,30.02,WNW,296,0.0,1.0,97,0.00,,,0.51,0,Wunderground v.1.15,2013-12-23 00:49:00,
2013-12-22 18:55:00,57.5,56.7,30.02,WNW,296,0.0,0.0,97,0.00,,,0.51,0,Wunderground v.1.15,2013-12-23 00:55:00,
2013-12-22 19:01:00,57.5,56.7,30.02,WNW,296,0.0,0.0,97,0.00,,,0.51,0,Wunderground v.1.15,2013-12-23 01:01:00,
2013-12-22 19:06:00,57.6,56.8,30.03,WNW,296,0.0,1.0,97,0.00,,,0.51,0,Wunderground v.1.15,2013-12-23 01:06:00,
2013-12-22 19:12:00,57.6,56.8,30.03,WNW,296,0.0,0.0,97,0.00,,,0.51,0,Wunderground v.1.15,2013-12-23 01:12:00,
2013-12-22 19:17:00,57.7,56.9,30.04,WNW,296,0.0,1.0,97,0.00,,,0.51,0,Wunderground v.1.15,2013-12-23 01:17:00,
2013-12-22 19:23:00,57.7,56.9,30.04,WNW,296,0.0,0.0,97,0.00,,,0.51,0,Wunderground v.1.15,2013-12-23 01:23:00,
2013-12-22 19:29:00,57.7,56.9,30.04,WNW,296,0.0,0.0,97,0.00,,,0.51,0,Wunderground v.1.15,2013-12-23 01:29:00,
2013-12-22 19:34:00,57.6,56.8,30.04,WNW,296,0.0,0.0,97,0.00,,,0.51,0,Wunderground v.1.15,2013-12-23 01:34:00,
2013-12-22 19:40:00,57.5,56.7,30.04,WNW,296,0.0,0.0,97,0.00,,,0.51,0,Wunderground v.1.15,2013-12-23 01:40:00,
2013-12-22 19:45:00,57.5,56.7,30.05,WNW,296,0.0,0.0,97,0.00,,,0.51,0,Wunderground v.1.15,2013-12-23 01:45:00,
2013-12-22 19:50:00,57.3,56.5,30.05,WNW,296,0.0,0.0,97,0.00,,,0.51,0,Wunderground v.1.15,2013-12-23 01:50:00,
2013-12-22 19:56:00,57.2,56.1,30.05,WNW,298,1.0,2.0,96,0.00,,,0.51,0,Wunderground v.1.15,2013-12-23 01:56:00,
2013-12-22 20:01:00,57.1,56.0,30.05,WNW,298,0.0,5.0,96,0.00,,,0.51,0,Wunderground v.1.15,2013-12-23 02:01:00,
2013-12-22 20:07:00,56.9,55.8,30.06,WNW,298,0.0,5.0,96,0.00,,,0.51,0,Wunderground v.1.15,2013-12-23 02:07:00,
2013-12-22 20:12:00,56.8,55.7,30.06,WNW,298,0.0,0.0,96,0.00,,,0.51,0,Wunderground v.1.15,2013-12-23 02:12:00,
2013-12-22 20:17:00,56.6,55.5,30.06,WNW,298,0.0,0.0,96,0.00,,,0.51,0,Wunderground v.1.15,2013-12-23 02:17:00,
2013-12-22 20:22:00,56.5,55.4,30.06,WNW,298,0.0,0.0,96,0.00,,,0.51,0,Wunderground v.1.15,2013-12-23 02:22:00,
2013-12-22 20:27:00,56.4,55.3,30.07,WNW,301,1.0,5.0,96,0.00,,,0.51,0,Wunderground v.1.15,2013-12-23 02:27:00,
2013-12-22 20:32:00,56.3,55.2,30.08,NNW,337,2.0,2.0,96,0.00,,,0.51,0,Wunderground v.1.15,2013-12-23 02:32:00,
2013-12-22 20:38:00,56.1,54.7,30.08,WNW,289,2.0,3.0,95,0.00,,,0.51,0,Wunderground v.1.15,2013-12-23 02:38:00,
2013-12-22 20:43:00,55.9,54.5,30.08,NW,323,1.0,7.0,95,0.00,,,0.51,0,Wunderground v.1.15,2013-12-23 02:43:00,
2013-12-22 20:49:00,55.7,54.3,30.07,NW,319,1.0,7.0,95,0.00,,,0.51,0,Wunderground v.1.15,2013-12-23 02:49:00,
2013-12-22 20:54:00,55.5,53.8,30.07,NW,305,1.0,1.0,94,0.00,,,0.51,0,Wunderground v.1.15,2013-12-23 02:54:00,
2013-12-22 20:59:00,55.3,53.6,30.08,NW,306,0.0,2.0,94,0.00,,,0.51,0,Wunderground v.1.15,2013-12-23 02:59:00,
2013-12-22 21:05:00,54.9,52.9,30.09,NNW,333,1.0,4.0,93,0.00,,,0.51,0,Wunderground v.1.15,2013-12-23 03:05:00,
2013-12-22 21:11:00,54.8,52.8,30.09,NW,321,1.0,1.0,93,0.00,,,0.51,0,Wunderground v.1.15,2013-12-23 03:11:00,
2013-12-22 21:16:00,54.6,52.6,30.09,NW,326,1.0,4.0,93,0.00,,,0.51,0,Wunderground v.1.15,2013-12-23 03:16:00,
2013-12-22 21:21:00,54.5,52.5,30.09,NW,324,1.0,1.0,93,0.00,,,0.51,0,Wunderground v.1.15,2013-12-23 03:21:00,
2013-12-22 21:26:00,54.3,52.3,30.09,NW,321,0.0,1.0,93,0.00,,,0.51,0,Wunderground v.1.15,2013-12-23 03:26:00,
2013-12-22 21:31:00,54.2,52.5,30.09,NW,321,0.0,0.0,94,0.00,,,0.51,0,Wunderground v.1.15,2013-12-23 03:31:00,
2013-12-22 21:36:00,54.0,52.3,30.09,NW,321,0.0,0.0,94,0.00,,,0.51,0,Wunderground v.1.15,2013-12-23 03:36:00,
2013-12-22 21:41:00,53.9,52.2,30.09,NW,321,0.0,0.0,94,0.00,,,0.51,0,Wunderground v.1.15,2013-12-23 03:41:00,
2013-12-22 21:46:00,53.8,52.4,30.09,NW,321,0.0,0.0,95,0.00,,,0.51,0,Wunderground v.1.15,2013-12-23 03:46:00,
2013-12-22 21:52:00,53.7,52.3,30.10,NW,321,0.0,0.0,95,0.00,,,0.51,0,Wunderground v.1.15,2013-12-23 03:52:00,
2013-12-22 21:57:00,53.6,52.2,30.09,NW,321,0.0,0.0,95,0.00,,,0.51,0,Wunderground v.1.15,2013-12-23 03:57:00,
2013-12-22 22:02:00,53.6,52.2,30.10,NW,321,0.0,0.0,95,0.00,,,0.51,0,Wunderground v.1.15,2013-12-23 04:02:00,
2013-12-22 22:07:00,53.6,52.2,30.11,NW,319,0.0,1.0,95,0.00,,,0.51,0,Wunderground v.1.15,2013-12-23 04:07:00,
2013-12-22 22:12:00,53.6,52.2,30.11,NW,316,1.0,3.0,95,0.00,,,0.51,0,Wunderground v.1.15,2013-12-23 04:12:00,
2013-12-22 22:18:00,53.6,52.2,30.10,NW,316,0.0,3.0,95,0.00,,,0.51,0,Wunderground v.1.15,2013-12-23 04:18:00,
2013-12-22 22:23:00,53.5,52.1,30.10,NW,318,1.0,5.0,95,0.00,,,0.51,0,Wunderground v.1.15,2013-12-23 04:23:00,
2013-12-22 22:29:00,53.4,51.7,30.10,NNW,337,1.0,5.0,94,0.00,,,0.51,0,Wunderground v.1.15,2013-12-23 04:29:00,
2013-12-22 22:34:00,53.3,51.6,30.11,NW,326,1.0,3.0,94,0.00,,,0.51,0,Wunderground v.1.15,2013-12-23 04:34:00,
2013-12-22 22:39:00,53.2,51.5,30.11,WNW,297,1.0,5.0,94,0.00,,,0.51,0,Wunderground v.1.15,2013-12-23 04:39:00,
2013-12-22 22:44:00,53.1,51.7,30.12,NW,305,1.0,1.0,95,0.00,,,0.51,0,Wunderground v.1.15,2013-12-23 04:44:00,
2013-12-22 22:50:00,52.9,51.2,30.12,WNW,298,1.0,1.0,94,0.00,,,0.51,0,Wunderground v.1.15,2013-12-23 04:50:00,
2013-12-22 22:55:00,52.8,51.1,30.12,WNW,291,1.0,6.0,94,0.00,,,0.51,0,Wunderground v.1.15,2013-12-23 04:55:00,
2013-12-22 23:00:00,52.6,50.9,30.13,NNW,335,2.0,2.0,94,0.00,,,0.51,0,Wunderground v.1.15,2013-12-23 05:00:00,
2013-12-22 23:01:00,52.6,50.9,30.13,NNW,333,2.0,3.0,94,0.00,,,0.51,0,Wunderground v.1.15,2013-12-23 05:01:00,
2013-12-22 23:02:00,52.5,50.8,30.13,NW,321,2.0,3.0,94,0.00,,,0.51,0,Wunderground v.1.15,2013-12-23 05:02:00,
2013-12-22 23:04:00,52.4,50.7,30.13,WNW,300,3.0,6.0,94,0.00,,,0.51,0,Wunderground v.1.15,2013-12-23 05:04:00,
2013-12-22 23:06:00,52.2,50.5,30.13,NW,314,3.0,6.0,94,0.00,,,0.51,0,Wunderground v.1.15,2013-12-23 05:06:00,
2013-12-22 23:10:00,52.1,50.4,30.14,NNW,335,2.0,2.0,94,0.00,,,0.51,0,Wunderground v.1.15,2013-12-23 05:10:00,
2013-12-22 23:16:00,51.7,50.0,30.14,WNW,300,1.0,5.0,94,0.00,,,0.51,0,Wunderground v.1.15,2013-12-23 05:16:00,
2013-12-22 23:21:00,51.5,49.8,30.14,NW,312,2.0,3.0,94,0.00,,,0.51,0,Wunderground v.1.15,2013-12-23 05:21:00,
2013-12-22 23:26:00,51.3,49.9,30.14,WNW,300,2.0,8.0,95,0.00,,,0.51,0,Wunderground v.1.15,2013-12-23 05:26:00,
2013-12-22 23:31:00,51.0,49.3,30.14,NW,312,2.0,5.0,94,0.00,,,0.51,0,Wunderground v.1.15,2013-12-23 05:31:00,
2013-12-22 23:34:00,50.9,49.2,30.15,WNW,286,3.0,5.0,94,0.00,,,0.51,0,Wunderground v.1.15,2013-12-23 05:34:00,
2013-12-22 23:39:00,50.7,49.0,30.15,NNW,344,3.0,5.0,94,0.00,,,0.51,0,Wunderground v.1.15,2013-12-23 05:39:00,
2013-12-22 23:45:00,50.5,49.1,30.15,NW,309,2.0,3.0,95,0.00,,,0.51,0,Wunderground v.1.15,2013-12-23 05:45:00,
2013-12-22 23:50:00,50.4,49.0,30.16,NW,311,0.0,0.0,95,0.00,,,0.51,0,Wunderground v.1.15,2013-12-23 05:50:00,
2013-12-22 23:55:00,50.1,48.7,30.14,NW,321,0.0,0.0,95,0.00,,,0.51,0,Wunderground v.1.15,2013-12-23 05:55:00,